Location: Franzen
(48.6167°N, 15.3833°E)
Time: 16:23:44
(UTC+00:00)

Cosmos 2219 - Pass Details

Date: 02 August 2021
Orbit: 834 x 860 km, 71.1° (Epoch: 18 September)

Event Time Altitude Azimuth Distance (km) Brightness Sun altitude
Exits shadow 01:24:52 - 275° (W) 3,224 5.9 -16.7°
Reaches altitude 10° 01:27:53 10° 296° (WNW) 2,501 5.6 -16.4°
Maximum altitude 01:30:55 14° 328° (NNW) 2,205 5.6 -16.1°
Drops below altitude 10° 01:33:58 10° 0° (N) 2,507 6.5 -15.8°
Sets 01:37:45 0° 25° (NNE) 3,446 8.0 -15.4°
